Regional Weather Roundup
Issued by NWS

Home | Current Version | Previous Version | Text Only | Print | Product List | Glossary On
Versions: 1 2 3 4 5 6 7 8 9 10 11 12 13 14 15 16 17 18 19 20 21 22 23 24 25 26 27
000
ASUS42 KTBW 160510
RWRFL
FLORIDA REGIONAL WEATHER ROUNDUP
NATIONAL WEATHER SERVICE TAMPA BAY RUSKIN FL
100 AM EDT WED APR 16 2014

NOTE: "FAIR" INDICATES FEW OR NO CLOUDS BELOW 12,000 FEET WITH NO
SIGNIFICANT WEATHER AND/OR OBSTRUCTIONS TO VISIBILITY.


FLZ001>010-012>015-112-114-115-160600-
PANHANDLE FLORIDA

CITY           SKY/WX    TMP DP  RH WIND       PRES   REMARKS
PENSACOLA      CLEAR     49  35  58 N12       30.16S WCI  44
PENSACOLA NAS  CLEAR     47  34  60 N10G20    30.15F WCI  42
MILTON NAS     CLEAR     45  35  68 N6        30.17R WCI  42
CRESTVIEW      PTCLDY    44  37  76 NW5       30.17R WCI  42
DUKE FIELD     MOCLDY    43  38  82 N7        30.14S WCI  39
VALPARAISO     MOCLDY    45  37  76 N10       30.14F WCI  39
MARY ESTHER    PTCLDY    46  34  63 N9        30.14S WCI  42
TRI COUNTY     FAIR      43  40  89 CALM      30.16R
PANAMA CITY    NOT AVBL
TYNDALL AFB    CLEAR     49  41  74 N12       30.12S WCI  44
APALACHICOLA   PTCLDY    51  37  58 N15       30.11R

STATION/POSITION SKY/WX   TEMP    WIND        PRES    WAVE   SWELL
                          AIR SEA DIR/SP/G            HT/PER HT/PER
                          (F)     (DEG/KT/KT) (MB)    (FT/S) (FT/S)
30.1N   87.6W              54 67  360/ 23/ 29 1020.4F   3/ 4
29.2N   88.2W              58 68   10/ 21/ 29 1020.9R
28.8N   86.0W              58 68   10/ 23/ 29 1019.2R   8/ 8
PANAMA CITY BEAC           47 69  350/  6/  8 1019.7F
CAPE SAN BLAS    NOT AVBL
TOWER C                    51     360/ 27/ 30 1018.3R
28.5N   84.5W              58 69   10/ 23/ 29 1017.4R   8/ 6

$$
FLZ011-016>038-118-127-128-134-139-239-160600-
NORTH FLORIDA

CITY           SKY/WX    TMP DP  RH WIND       PRES   REMARKS
MARIANNA       PTCLDY    44  40  85 N6        30.13R WCI  41
TALLAHASSEE    CLEAR     48  37  65 N10       30.10R WCI  43
PERRY          PTCLDY    46  43  87 N9        30.10R WCI  42
CROSS CITY       N/A     49  42  77 N14       30.08R WCI  44
GAINESVILLE    CLEAR     50  43  77 NW9       30.05R
MAYPORT NAS    PTCLDY    51  41  68 VRB6      30.04R
JACKSONVILLE   PTCLDY    49  41  74 NW12      30.04R WCI  44
JAX NAS        MOCLDY    53  43  68 NW12      30.04R
JAX CRAIG      PTCLDY    52  41  66 N17       30.04R
JAX CECIL      CLEAR     48  41  76 NW9       30.05R WCI  44
FERNANDINA BEA FAIR      50  41  71 NW12      30.03R
ST AUGUSTINE   CLEAR     52  46  80 NW14      30.03R

STATION/POSITION SKY/WX   TEMP    WIND        PRES    WAVE   SWELL
                          AIR SEA DIR/SP/G            HT/PER HT/PER
                          (F)     (DEG/KT/KT) (MB)    (FT/S) (FT/S)
SHELL POINT                49     360/  7/ 10 1017.3R
KEATON BEACH               48     360/  5/  8 1019.1R
CEDAR KEY                  51     360/  8/ 12 1018.1R
FERNANDINA                 51 69  330/ 13/ 16 1016.4R
30.7N   81.3W                 65                N/A     4/ 3
MAYPORT                    51 65  320/ 11/ 15   N/A
31.4N   80.9W              54 65  320/ 19/ 23 1015.4R   4/ 4   2/ 9
ST AUGUSTINE               53     320/ 14/ 17 1017.0R

$$
FLZ040-043>046-052-053-057-058-063-144-160600-
INTERIOR CENTRAL FLORIDA

CITY           SKY/WX    TMP DP  RH WIND       PRES   REMARKS
OCALA          PTCLDY    54  43  66 N13       30.04S
THE VILLAGES     N/A     55  48  76 NW9       30.02S
LEESBURG       MOCLDY    59  51  75 N14       30.02R
SANFORD        MOCLDY    62  57  83 N15G25    29.97S
ORLANDO EXEC   PTCLDY    67  59  75 N13G20    29.97R
ORLANDO INTL   CLOUDY    68  61  78 NW12      29.96S
WINTER HAVEN   PTCLDY    63  57  81 NW10      29.98R
LAKELAND       MOCLDY    63  55  77 NW7       29.98S
BARTOW         FAIR      64  59  82 NW13      29.98S
OKEECHOBEE     MOCLDY    70  66  88 NW7       29.95S

$$
FLZ041-047-054-059-064-141-147-160600-
EAST CENTRAL FLORIDA

CITY           SKY/WX    TMP DP  RH WIND       PRES   REMARKS
DAYTONA BEACH  CLOUDY    58  52  80 NW10      29.99R
DELAND         MOCLDY    59  54  82 NW9       30.01
JFK SPACE CTR  CLOUDY    66  63  88 N9        29.94R
CAPE CANAVERAL MOCLDY    69  64  84 N12       29.94R
PATRICK AFB    MOCLDY    71  67  87 NW14      29.93R
MELBOURNE      MOCLDY    69  66  90 NW8       29.93S
VERO BEACH     MOCLDY    72  68  87 NW10      29.93F
FT PIERCE      MOCLDY    73  67  81 NW7       29.93S
STUART         PTCLDY    72  68  88 W6        29.95R

STATION/POSITION SKY/WX   TEMP    WIND        PRES    WAVE   SWELL
                          AIR SEA DIR/SP/G            HT/PER HT/PER
                          (F)     (DEG/KT/KT) (MB)    (FT/S) (FT/S)
28.5N   80.2W              72 74  310/ 17/ 25 1013.1R
28.9N   78.5W              76 76  180/ 16/ 17 1012.2S   5/ 6   2/ 8
TRIDENT PIER               71 76  300/ 10/ 13 1013.1R
28.4N   80.5W                 74                N/A     3/ 5
27.6N   80.2W                 75                N/A     3/ 8

$$
FLZ050-056-061-142-242-148-248-149-249-151-251-155-255-
160-260-160600-
WEST CENTRAL FLORIDA

CITY           SKY/WX    TMP DP  RH WIND       PRES   REMARKS
CRYSTAL RIVER  FAIR      52  45  76 N3        30.04S
INVERNESS      CLOUDY    55  46  71 N7        30.04R
BROOKSVILLE    MOCLDY    58  53  84 N10       30.02R
ZEPHYRHILLS    FAIR      61  61 100 NW8       29.99S
CLEARWATER     MOCLDY    63  54  72 N16       29.99F
TAMPA INTL     MOCLDY    62  55  77 NW10      30.00S
TAMPA EXEC     MOCLDY    63  55  77 NW6       30.00R
PLANT CITY     MOCLDY    64  59  82 NW6       30.00S
MACDILL AFB    MOCLDY    63  58  83 N9G21     29.99S
PETER O KNIGHT MOCLDY    64  57  77 N6        30.00R
ST PETERSBURG  MOCLDY    65  57  75 N9        29.97S
SARASOTA       PTCLDY    64  57  78 N12       29.97S
VENICE         FAIR      66  59  77 N9        29.98R

STATION/POSITION SKY/WX   TEMP    WIND        PRES    WAVE   SWELL
                          AIR SEA DIR/SP/G            HT/PER HT/PER
                          (F)     (DEG/KT/KT) (MB)    (FT/S) (FT/S)
CEDAR KEY                  51     360/  8/ 12 1018.1R
28.5N   84.5W              58 69   10/ 23/ 29 1017.4R   8/ 6
27.3N   84.3W                 73                N/A    10/ 9   2/11
CLEARWATER BEACH           64 73  340/ 19/ 25 1015.6R
MIDDLE TAMPA BAY           65     360/ 15/ 19 1015.7R
VENICE                     67 76  360/ 10/ 12 1014.6R

$$
FLZ066-069-070-075>078-162-262-165-265-160600-
SOUTHWEST FLORIDA AND KEYS

CITY           SKY/WX    TMP DP  RH WIND       PRES   REMARKS
PUNTA GORDA    MOCLDY    69  64  84 N8        29.98S
FT MYERS       CLOUDY    71  65  81 N7        29.95S
SOUTHWEST INTL CLOUDY    70  65  84 N6        29.96R
NAPLES         CLOUDY    73  71  93 NW9       29.96R
MARATHON       CLOUDY    79  73  82 NW3       29.95R
KEY WEST NAS   CLOUDY    78  72  81 W7        29.96S
KEY WEST INTL  MOCLDY    78  72  81 W5        29.96S

STATION/POSITION SKY/WX   TEMP    WIND        PRES    WAVE   SWELL
                          AIR SEA DIR/SP/G            HT/PER HT/PER
                          (F)     (DEG/KT/KT) (MB)    (FT/S) (FT/S)
VENICE                     67 76  360/ 10/ 12 1014.6R
NAPLES                     72 79  340/ 15/ 17 1014.6R
26.0N   85.6W              67 81  360/ 19/ 25 1016.7R   7/ 9   5/ 9
DRY TORTUGAS     NOT AVBL
NW FL BAY                  79     280/  6/  7 1014.4R
SOMBRERO KEY               78     200/  5/  5 1015.0R
LONG KEY                   79 82  290/  3/  4 1014.8S
MOLASSES REEF              78 79  210/  6/  6 1014.1R

$$
FLZ067-068-071>074-168-172>174-160600-
SOUTHEAST FLORIDA

CITY           SKY/WX    TMP DP  RH WIND       PRES   REMARKS
W PALM BEACH   MOCLDY    75  71  87 SW3       29.92S
FT LAUDER-EXEC MOCLDY    76  72  87 S5        29.94S
FT LAUDERDALE  MOCLDY    77  74  90 SW3       29.94R
POMPANO BEACH  PTCLDY    76  73  91 S5        29.95R
PEMBROKE PINES PTCLDY    76  73  91 SW3       29.96R
OPA LOCKA      PTCLDY    75  72  90 SW6       29.96R
MIAMI          MOCLDY    77  73  87 SW6       29.96R
WEST KENDALL   MOCLDY    73 N/A N/A CALM      29.96R HAZE
HOMESTEAD      MOCLDY    74  69  86 CALM      29.95S

STATION/POSITION SKY/WX   TEMP    WIND        PRES    WAVE   SWELL
                          AIR SEA DIR/SP/G            HT/PER HT/PER
                          (F)     (DEG/KT/KT) (MB)    (FT/S) (FT/S)
PORT EVERGLADES            76     220/  3/  5 1014.2
VIRGINIA KEY               78 80  280/  6/  9 1014.3S
LAKE WORTH                 76 76  220/  5/  8 1013.1F
FOWEY ROCKS                78 78  240/ 12/ 13 1014.3R
SETTLEMENT POINT           78     190/ 10/ 11 1014.1S

$$




USA.gov is the U.S. government's official web portal to all federal, state and local government web resources and services.